Home   Weather   Seoul   Past weeks

Flag for South Korea Past Weather in Seoul, South Korea — Yesterday and Last 2 Weeks

Now
16 °F

Clear.


Feels Like: 4 °F
Forecast: 12 / 25 °F
Wind: 9 mph from Northwest

Location: Seoul / Kimp'O International Airport

Current Time: Jan 22, 2017 at 4:59:41 am

Latest Report: Jan 22, 2017 at 4:00 am


Visibility: 10 mi

Pressure: 30.30 "Hg

Humidity: 45%

Dew Point: -2 °F

Location of SeoulLocation

Past Weather in Seoul — Graph

°F

Seoul Temperature Yesterday

Maximum temperature yesterday: 30 °F (at 2:00 pm)
Minimum temperature yesterday: 9 °F (at 1:00 am)
Average temperature yesterday: 21 °F

High & Low Weather Summary for the Past Weeks

 TemperatureHumidityPressure
High50 °F (Jan 8, 1:00 pm)87% (Jan 7, 10:00 am)30.51 "Hg (Jan 7, 10:00 am)
Low9 °F (Jan 21, 1:00 am)17% (Jan 16, 3:00 pm)29.89 "Hg (Jan 8, 3:00 pm)
Average27 °F53%30.24 "Hg
* Reported Jan 7 3:00 am — Jan 22 3:00 am, Seoul, Weather by CustomWeather, © 2017

Note: Actual official high and low records may vary slightly from our data, if they occured in-between our weather recording intervals... More about our weather records

Advertising

Seoul Weather History for the Previous 24 Hours

Scroll right to see more
 ConditionsComfort  
Time TempWeatherWind HumidityBarometerVisibility
3:00 am
Sun, Jan 22
19 °FClear.14 mph42%30.30 "Hg10 mi
2:00 am21 °FClear.13 mph49%30.27 "Hg10 mi
1:00 am25 °FClear.22 mph54%30.24 "Hg10 mi
12:38 am25 °FPassing clouds.23 mph59%30.24 "Hg4 mi
12:00 am27 °FLight snow. Passing clouds.16 mph74%30.21 "Hg2 mi
11:17 pm
Sat, Jan 21
28 °FSnow. Overcast.10 mph80%30.18 "Hg0 mi
11:00 pm28 °FSnow. Overcast.14 mph80%30.18 "Hg1 mi
10:00 pm18 °FPassing clouds.3 mph73%30.18 "HgN/A
9:00 pm19 °FPassing clouds.5 mph79%30.21 "HgN/A
8:43 pm21 °FPassing clouds.3 mph80%30.18 "Hg4 mi
8:00 pm23 °FIce fog.5 mph80%30.21 "Hg2 mi
7:00 pm23 °FIce fog.2 mph80%30.21 "Hg2 mi
6:36 pm27 °FIce fog.3 mph80%30.21 "Hg2 mi
5:49 pm27 °FLight snow. Overcast.5 mph86%30.21 "Hg1 mi
5:20 pm27 °FLight snow. More clouds than sun.7 mph80%30.21 "Hg1 mi
5:05 pm28 °FHeavy snow. More clouds than sun.5 mph80%30.21 "Hg0 mi
4:28 pm28 °FSnow. Cloudy.8 mph74%30.24 "Hg1 mi
4:07 pm28 °FLight snow. Mostly cloudy.6 mph74%30.24 "Hg1 mi
3:36 pm28 °FSnow. Cloudy.7 mph74%30.24 "Hg1 mi
2:53 pm28 °FLight snow. Mostly cloudy.7 mph69%30.27 "Hg1 mi
2:26 pm30 °FLight snow. Ice fog.6 mph55%30.27 "Hg3 mi
2:00 pm30 °FMostly cloudy.3 mph55%30.27 "HgN/A
1:00 pm28 °FPartly sunny.5 mph55%30.33 "HgN/A
12:00 pm27 °FPartly sunny.3 mph50%30.39 "Hg5 mi
11:00 am27 °FPartly sunny.2 mph50%30.42 "Hg5 mi
10:00 am21 °FScattered clouds.1 mph74%30.42 "Hg5 mi
9:00 am18 °FLight snow. Partly sunny.3 mph73%30.42 "Hg4 mi
8:00 am12 °FPartly sunny.2 mph79%30.42 "Hg4 mi
7:00 am9 °FPassing clouds.1 mph72%30.42 "Hg4 mi
6:00 am9 °FClear.2 mph72%30.39 "Hg5 mi
5:00 am9 °FClear.3 mph78%30.39 "Hg5 mi
4:00 am10 °FClear.2 mph72%30.42 "Hg5 mi
Weather by CustomWeather, © 2017

See weather overviewHow to use our weather pages